Temperature
21 20 20 20 20 21 21 21 21 21 21 20 20 20 20 20 20 20 20 20 19 19 19 19 19 19 19 19 19 19 19 19 19 18 18 18 18 17 17 17 17 17 17
22 21 20 20 21 21 21 21 21 21 21 21 20 20 20 20 20 20 20 20 20 20 20 20 20 20 19 19 19 19 19 19 19 18 18 18 17 17 17 18 17 17 17
22 21 21 21 21 21 21 21 21 21 21 21 20 20 20 20 20 20 20 20 20 20 20 20 20 20 20 20 19 19 19 19 19 18 18 18 17 17 18 18 18 18 18
22 21 21 21 21 21 21 21 21 21 21 21 20 20 20 20 20 20 20 20 20 20 20 20 20 20 20 20 19 19 19 19 19 18 18 18 18 17 17 18 18 18 18
22 21 21 21 21 21 21 21 21 21 21 21 20 20 20 20 20 20 20 20 20 20 20 20 20 20 20 20 19 19 19 19 18 18 18 18 18 17 17 18 18 18 18
22 21 21 21 21 21 21 21 21 21 21 21 20 20 20 20 20 20 20 20 20 20 20 20 20 20 19 19 19 19 19 18 18 18 18 18 18 17 17 17 17 18 18
22 21 21 21 21 21 21 21 21 21 21 21 20 20 20 20 20 20 20 20 20 20 20 20 20 19 19 19 19 19 18 18 18 18 18 18 17 17 17 17 17 17 17
22 21 21 21 21 21 21 21 21 21 21 21 20 20 20 20 20 20 20 20 20 20 19 19 19 19 19 19 19 19 18 18 18 18 18 18 17 17 17 17 17 17 17
22 22 21 21 21 21 21 21 21 21 21 20 20 20 20 20 20 20 20 20 19 19 19 19 19 19 19 19 19 18 18 18 18 18 18 18 18 17 17 17 17 17 17
22 22 21 21 21 21 21 21 20 20 20 20 20 20 20 20 20 19 19 19 19 19 19 19 19 19 19 18 18 18 18 18 18 18 18 18 18 18 17 17 17 17 17
21 21 21 21 21 21 21 20 20 20 20 20 20 20 20 19 19 19 19 19 19 19 19 19 18 18 18 18 18 18 18 18 18 18 18 18 18 18 18 17 17 17 17
21 21 21 21 21 21 20 20 20 20 20 20 20 20 19 19 19 19 19 19 18 18 18 18 18 18 18 18 18 18 18 18 18 18 18 18 18 18 18 18 17 17 17
21 21 21 20 20 20 20 20 20 20 20 20 19 19 19 19 19 19 19 18 18 18 18 18 18 18 18 18 18 18 18 18 18 18 18 18 18 18 18 18 18 18 17
21 21 20 20 20 20 20 19 19 19 19 19 19 19 19 19 19 18 18 18 18 18 18 18 18 18 18 18 18 18 18 18 18 18 18 18 18 18 18 18 18 18 18
21 21 20 20 20 20 20 19 19 19 19 19 19 19 19 18 18 18 18 18 18 18 18 18 18 18 18 18 18 18 18 18 18 18 18 18 18 18 18 18 18 18 18
20 20 20 20 20 19 19 19 19 19 19 19 19 19 18 18 18 18 18 18 17 17 17 17 17 17 17 17 17 17 18 18 18 18 18 18 18 18 18 18 18 18 18
19 19 19 19 19 19 19 19 18 18 18 18 18 18 18 18 18 18 18 17 17 17 17 17 17 17 17 17 17 17 17 17 17 18 18 18 18 18 18 18 18 18 18
19 19 19 19 19 19 18 18 18 18 18 18 18 18 18 18 17 17 17 17 17 17 17 17 17 17 17 17 17 17 17 17 17 17 17 18 18 18 18 18 18 18 17
19 19 19 19 19 18 18 18 17 17 17 17 17 17 17 17 17 17 17 17 17 17 17 17 17 17 17 17 17 17 17 17 17 17 17 17 18 18 18 18 18 17 17
18 18 18 18 18 17 17 17 17 16 17 17 17 17 17 17 17 17 17 17 17 17 17 17 17 17 17 17 17 17 17 17 17 17 17 17 17 17 17 17 17 17 17
18 18 17 17 17 17 17 17 16 16 16 17 17 17 17 17 17 17 17 17 17 17 17 17 17 17 17 17 17 17 17 17 17 17 17 17 17 17 17 17 17 17 17
17 17 17 17 16 16 16 16 16 16 16 16 16 16 17 17 17 17 17 17 17 17 17 17 17 17 17 17 16 17 17 17 17 17 17 17 17 17 17 17 17 17 17
17 16 16 16 16 16 16 16 16 15 16 16 16 16 16 16 16 16 17 17 17 17 17 17 17 17 17 17 16 16 16 17 16 16 16 16 16 16 16 17 17 17 17
16 16 16 16 16 16 16 16 15 15 15 15 16 16 16 16 16 16 16 16 16 17 17 17 17 17 17 16 16 16 16 16 16 16 16 16 16 16 16 16 16 17 17
16 16 16 16 16 16 16 16 15 15 15 15 15 15 15 15 16 16 16 16 16 16 16 16 16 16 16 16 16 16 16 15 15 15 15 16 16 16 16 16 16 16 16
16 16 16 16 16 16 16 15 15 15 15 15 15 15 15 15 15 15 15 15 15 15 16 16 16 16 16 16 16 15 15 15 15 15 14 15 15 16 16 16 16 16 16
Wind_Speed
10 13 22 21 20 19 19 18 18 18 18 18 18 18 18 18 17 16 15 14 13 11 11 10 10 10 10 11 11 12 12 13 13 13 13 13 13 13 14 14 13 12 15
16 18 23 22 21 20 19 18 18 17 17 17 17 17 17 17 16 15 14 13 12 11 11 10 10 10 10 10 11 11 11 12 12 12 12 11 11 12 13 13 12 11 14
17 18 22 22 21 20 19 18 17 17 17 16 16 16 16 16 15 14 13 12 12 11 11 10 10 10 10 10 10 10 10 10 10 11 10 7 8 10 12 12 12 13 13
16 16 19 22 21 20 19 18 17 16 16 15 15 15 15 15 14 14 13 12 11 11 10 10 10 9 9 9 9 9 9 9 9 9 6 5 5 9 11 12 13 13 13
13 14 19 23 21 20 19 17 17 16 15 15 15 14 14 14 13 13 12 12 11 10 10 10 9 9 9 8 8 8 8 7 7 6 5 4 3 7 10 12 13 13 13
12 13 18 23 21 20 19 18 17 16 15 15 14 14 13 13 13 12 12 11 11 10 10 9 9 9 8 8 7 7 6 6 5 3 3 4 4 6 10 12 13 13 13
13 12 17 23 22 21 19 18 17 16 15 15 14 14 14 13 13 12 12 11 11 10 10 10 9 9 8 8 7 7 6 6 4 3 3 4 6 8 10 13 14 14 14
15 11 15 22 22 21 20 19 17 17 16 15 15 14 14 13 13 12 12 12 11 11 10 10 10 9 9 8 8 7 7 7 5 5 5 5 7 10 12 14 15 16 16
13 11 10 16 19 20 20 19 18 17 16 16 15 15 14 14 13 13 13 12 12 11 11 11 11 10 10 10 9 9 9 9 6 5 5 6 7 9 12 15 15 17 18
11 10 8 10 13 14 16 18 18 17 16 16 16 15 15 14 14 14 13 13 13 13 13 13 13 12 12 12 11 11 11 10 8 7 7 7 9 10 12 14 17 17 18
13 10 8 7 8 10 11 15 16 16 16 16 15 16 15 13 12 12 13 14 15 15 15 15 15 15 14 13 14 13 12 9 8 8 8 10 11 12 12 14 17 18 19
14 13 9 8 6 6 9 9 9 11 11 13 11 12 11 10 11 13 13 16 17 17 17 17 17 17 15 12 13 14 11 11 10 9 10 13 14 14 13 14 16 18 20
9 9 8 7 6 5 4 3 4 6 7 9 10 11 10 8 9 11 10 12 14 15 14 14 15 13 12 11 11 11 11 10 10 10 12 14 15 15 15 16 17 18 20
8 7 6 6 5 5 3 2 3 4 5 6 9 11 9 6 6 7 7 9 10 10 9 9 8 10 11 13 12 11 11 10 10 10 12 16 16 16 15 15 17 19 20
8 7 6 6 5 5 4 3 4 4 5 7 8 10 10 7 7 7 6 7 8 9 7 7 6 7 8 8 9 10 9 10 11 12 11 15 16 16 16 16 16 17 19
6 6 5 5 4 3 4 4 4 4 6 6 8 11 12 10 7 6 7 6 6 7 7 6 6 6 6 5 7 7 8 9 10 11 11 13 15 15 16 15 15 16 16
5 4 4 4 4 4 5 5 4 4 4 5 7 11 12 11 9 7 7 6 6 7 6 5 4 3 4 4 6 6 6 7 8 9 10 11 11 13 14 15 15 16 17
3 3 2 3 4 5 4 4 3 4 4 5 7 8 9 10 10 7 7 6 5 5 4 3 3 3 3 3 3 4 4 4 7 8 8 9 9 10 11 13 14 15 16
1 1 1 1 2 3 3 3 3 3 4 4 4 4 6 7 9 7 6 5 4 3 3 3 2 2 3 3 4 4 4 5 6 6 7 8 9 9 10 11 12 14 16
3 2 2 2 0 0 1 1 1 3 4 3 4 4 5 6 7 5 4 5 4 3 3 2 2 2 2 2 3 3 3 4 4 5 6 6 6 8 8 8 8 10 13
6 5 4 3 2 2 2 1 1 1 3 2 2 4 5 6 5 4 4 4 5 5 4 4 2 2 2 1 1 2 2 2 3 3 3 4 5 5 6 6 7 7 8
8 6 4 4 4 4 2 1 0 1 2 2 2 2 3 3 3 4 5 5 5 4 4 4 3 3 2 2 2 1 2 3 2 1 1 2 2 2 3 4 6 6 7
6 4 3 4 4 4 3 2 2 1 2 2 2 3 3 3 2 2 4 4 5 5 5 5 5 5 4 2 2 3 2 3 2 2 1 1 2 1 2 3 4 5 6
3 2 3 3 4 4 4 4 4 2 2 2 2 2 4 3 2 1 1 2 3 4 4 5 5 4 4 3 2 2 2 2 2 2 2 2 3 3 4 4 4 5 6
2 2 2 3 3 3 4 4 4 3 1 1 2 4 4 4 4 3 2 1 1 2 3 4 5 5 5 4 4 3 2 1 2 2 3 3 3 3 4 5 5 4 5
2 1 1 1 1 1 1 2 3 2 1 1 2 3 3 3 3 4 4 2 2 2 3 4 5 6 6 5 5 4 4 3 3 4 5 4 4 3 4 4 4 4 4
Wind_Direction
165 163 168 161 154 149 146 144 141 139 138 138 139 141 144 146 148 149 149 149 147 144 140 135 129 125 123 122 123 122 122 123 125 126 126 127 128 127 125 123 121 120 121
154 160 165 161 155 151 148 145 144 143 142 141 142 144 147 149 151 152 152 152 150 147 144 140 137 134 131 129 128 128 129 131 132 132 132 134 138 136 133 131 130 131 128
148 158 163 161 156 152 149 148 147 147 146 146 147 148 151 153 155 155 156 155 154 152 150 147 145 143 140 138 136 135 136 138 140 138 133 130 141 145 145 143 142 139 136
147 155 160 161 158 155 152 151 151 151 152 152 153 154 156 158 160 161 162 161 160 158 157 156 155 153 150 148 146 145 146 146 147 142 130 136 148 157 156 155 153 150 147
145 152 162 162 160 157 156 155 156 158 159 160 160 162 163 165 166 168 167 168 169 168 167 167 166 163 161 160 158 157 157 157 159 145 144 160 168 171 169 166 164 163 160
146 151 165 163 162 161 161 162 163 165 167 168 169 170 172 174 175 176 176 178 179 180 180 179 178 176 176 175 175 174 175 178 173 146 166 193 203 196 187 180 177 174 170
150 155 168 165 166 165 166 168 171 172 175 177 178 180 182 184 186 187 188 189 191 193 193 193 193 193 193 193 194 195 198 203 187 191 210 221 218 215 208 198 190 186 180
156 157 169 169 169 170 172 174 178 180 182 185 187 190 192 194 196 198 200 201 203 206 208 209 209 210 210 211 213 215 217 223 222 214 225 231 233 229 222 211 202 196 191
157 158 166 170 174 176 178 180 184 188 190 193 196 199 201 204 206 209 211 214 216 219 222 223 225 226 226 226 228 230 232 235 231 223 236 235 241 237 230 219 210 203 198
160 165 166 166 171 175 181 187 191 195 198 201 205 207 211 214 217 220 222 226 228 230 232 234 235 236 237 237 238 239 242 244 240 235 240 245 250 246 238 228 217 212 207
172 175 169 164 166 171 180 193 197 203 206 209 214 217 218 221 226 231 232 233 237 239 240 240 241 241 242 243 243 243 245 242 237 239 241 246 250 249 244 235 225 219 214
180 182 179 174 167 166 188 200 205 209 213 215 218 224 225 221 226 234 240 242 243 244 246 245 245 245 243 241 244 245 241 238 238 241 242 244 247 247 247 242 234 227 221
173 180 182 180 172 173 186 195 207 218 221 222 223 226 231 231 233 238 240 248 251 251 250 249 247 241 235 232 235 237 238 239 240 242 244 243 243 245 246 244 238 232 227
155 169 166 168 174 184 192 214 217 221 227 232 233 230 229 233 235 237 240 242 245 246 244 243 239 235 233 232 232 235 238 238 240 242 245 248 248 247 248 248 242 236 231
148 154 155 160 176 187 191 216 228 230 230 235 238 236 231 232 237 238 239 242 243 242 239 237 233 231 230 232 233 232 235 237 239 239 242 248 250 252 252 250 246 242 234
139 148 152 161 173 189 206 217 230 230 230 237 240 236 233 233 231 236 243 241 243 241 237 230 227 227 226 223 231 232 235 237 241 241 242 249 252 253 255 254 247 241 238
124 133 147 166 176 188 210 216 222 229 235 233 245 242 236 233 230 229 235 237 237 239 236 231 227 221 226 224 233 235 236 237 242 243 245 247 250 253 255 254 250 240 237
112 125 165 189 186 190 202 212 228 228 221 229 241 245 235 228 226 224 227 229 224 221 218 215 212 209 221 224 235 243 242 242 248 249 248 249 249 253 256 255 252 244 239
93 125 166 205 182 183 185 204 230 244 240 234 238 247 248 232 221 217 223 224 210 201 204 206 194 191 205 222 238 245 246 246 252 257 254 252 250 251 253 256 254 250 245
39 36 21 357 9 153 145 38 300 249 243 226 222 234 242 242 231 218 217 216 199 190 190 189 188 191 202 220 249 261 262 261 259 255 257 258 255 253 251 251 251 252 251
39 41 33 29 10 6 22 39 318 272 277 283 238 240 239 232 224 216 223 207 194 188 192 189 175 180 198 173 191 306 311 290 273 258 259 256 257 257 257 255 249 249 254
34 26 22 20 12 2 354 339 305 294 292 315 317 295 273 245 227 223 217 215 200 185 183 184 170 163 182 168 163 144 333 339 334 326 306 265 270 273 272 277 266 255 253
36 23 30 32 31 18 8 359 2 1 355 2 349 337 332 329 292 246 230 219 205 193 195 194 183 175 183 193 191 167 168 231 297 314 319 320 316 305 299 297 286 275 263
33 28 35 35 33 23 33 51 56 49 29 352 331 330 343 357 339 314 261 229 217 205 204 205 193 186 170 189 204 217 200 176 188 299 314 317 317 300 299 298 297 289 272
8 31 42 43 37 28 47 74 81 70 44 334 344 354 355 358 357 347 336 298 243 227 221 212 197 196 189 185 188 184 192 207 205 213 271 305 317 291 286 286 284 280 273
322 334 326 50 35 19 67 88 103 104 81 27 355 348 343 338 343 348 342 324 285 254 244 231 215 207 208 203 199 192 183 183 197 203 233 265 290 289 288 280 274 276 277
Height
1494 1499 1503 1506 1510 1512 1515 1517 1520 1522 1524 1525 1527 1528 1530 1531 1532 1533 1534 1536 1537 1538 1538 1539 1540 1541 1542 1542 1543 1543 1544 1544 1545 1545 1546 1547 1548 1548 1549 1550 1551 1552 1554
1491 1497 1502 1506 1510 1513 1516 1518 1520 1522 1524 1526 1528 1529 1531 1532 1533 1535 1536 1537 1538 1539 1540 1541 1542 1542 1543 1544 1544 1545 1545 1546 1547 1547 1548 1549 1550 1551 1551 1552 1553 1554 1555
1492 1497 1502 1507 1511 1514 1516 1519 1521 1523 1525 1527 1529 1530 1532 1533 1535 1536 1537 1538 1539 1540 1541 1542 1543 1543 1544 1545 1545 1546 1547 1547 1548 1549 1550 1550 1551 1552 1553 1554 1555 1556 1557
1494 1498 1503 1507 1512 1515 1517 1520 1522 1524 1526 1528 1530 1531 1533 1534 1535 1537 1538 1539 1540 1541 1542 1543 1544 1544 1545 1546 1547 1547 1548 1549 1549 1550 1551 1552 1553 1554 1555 1556 1557 1558 1559
1496 1500 1504 1508 1512 1516 1518 1521 1523 1525 1527 1528 1530 1532 1533 1535 1536 1537 1538 1540 1541 1542 1543 1543 1544 1545 1546 1547 1547 1548 1549 1550 1550 1551 1552 1553 1554 1555 1556 1557 1558 1559 1560
1497 1501 1505 1509 1513 1516 1519 1521 1524 1526 1527 1529 1531 1532 1534 1535 1537 1538 1539 1540 1541 1542 1543 1544 1545 1545 1546 1547 1548 1549 1549 1550 1551 1552 1553 1554 1555 1556 1557 1558 1559 1560 1561
1498 1502 1506 1510 1513 1516 1519 1522 1524 1526 1528 1530 1531 1533 1534 1536 1537 1538 1539 1540 1541 1542 1543 1544 1544 1545 1546 1547 1548 1549 1550 1550 1551 1552 1553 1554 1555 1556 1557 1558 1559 1560 1561
1499 1503 1506 1510 1513 1517 1519 1522 1524 1526 1528 1530 1531 1533 1534 1535 1537 1538 1539 1540 1541 1541 1542 1543 1544 1545 1545 1546 1547 1548 1549 1550 1550 1551 1552 1553 1554 1555 1556 1557 1558 1560 1561
1500 1503 1506 1510 1513 1516 1520 1522 1524 1526 1528 1530 1531 1532 1534 1535 1536 1537 1538 1539 1540 1540 1541 1542 1543 1543 1544 1545 1546 1547 1548 1548 1549 1550 1551 1552 1553 1554 1555 1556 1557 1559 1560
1500 1503 1506 1509 1513 1516 1519 1521 1524 1526 1528 1529 1530 1532 1533 1534 1535 1536 1536 1537 1538 1539 1539 1540 1541 1542 1542 1543 1544 1545 1546 1546 1547 1548 1549 1550 1552 1553 1554 1555 1556 1557 1559
1499 1503 1506 1509 1512 1515 1518 1520 1523 1525 1527 1528 1529 1530 1532 1532 1533 1534 1535 1535 1536 1537 1537 1538 1539 1539 1540 1541 1541 1542 1543 1544 1545 1545 1546 1548 1549 1550 1552 1553 1554 1555 1557
1498 1501 1505 1509 1511 1515 1518 1520 1522 1524 1525 1526 1528 1529 1530 1531 1532 1532 1533 1533 1534 1534 1535 1536 1536 1537 1537 1538 1539 1540 1540 1541 1542 1542 1543 1545 1546 1547 1549 1550 1551 1553 1554
1499 1502 1505 1508 1511 1514 1517 1519 1521 1523 1524 1525 1526 1527 1528 1529 1530 1530 1530 1531 1531 1532 1532 1533 1534 1534 1535 1535 1536 1537 1537 1538 1539 1540 1541 1542 1543 1544 1545 1547 1548 1550 1551
1500 1503 1506 1508 1510 1512 1515 1517 1519 1520 1522 1523 1524 1525 1526 1526 1527 1527 1528 1528 1529 1529 1530 1531 1531 1531 1532 1532 1533 1534 1534 1535 1536 1536 1537 1539 1540 1541 1542 1543 1545 1546 1548
1501 1503 1505 1508 1510 1511 1513 1515 1516 1517 1519 1521 1522 1523 1523 1523 1524 1524 1525 1525 1525 1526 1526 1527 1528 1528 1528 1529 1530 1530 1531 1531 1532 1533 1534 1535 1536 1538 1539 1539 1541 1542 1544
1501 1503 1505 1507 1508 1509 1510 1511 1512 1512 1514 1516 1517 1519 1520 1520 1521 1521 1521 1521 1522 1522 1522 1523 1524 1524 1525 1525 1526 1527 1527 1528 1528 1529 1530 1531 1532 1533 1535 1536 1537 1538 1539
1500 1502 1503 1505 1505 1506 1507 1507 1508 1508 1509 1510 1513 1515 1515 1516 1516 1517 1517 1517 1517 1518 1519 1519 1519 1520 1520 1521 1521 1522 1523 1523 1524 1525 1525 1526 1527 1529 1530 1531 1532 1533 1535
1499 1500 1501 1501 1501 1501 1502 1502 1503 1503 1504 1506 1507 1509 1510 1511 1512 1512 1513 1513 1513 1514 1514 1515 1515 1515 1516 1516 1517 1518 1518 1519 1519 1520 1520 1521 1522 1524 1525 1526 1527 1528 1529
1498 1499 1498 1498 1497 1497 1497 1497 1497 1497 1498 1501 1502 1503 1505 1506 1507 1508 1508 1508 1509 1510 1510 1511 1511 1512 1512 1512 1513 1513 1514 1514 1514 1515 1515 1516 1517 1518 1520 1521 1521 1522 1524
1496 1497 1497 1495 1494 1494 1494 1492 1491 1491 1494 1495 1496 1499 1501 1502 1503 1504 1504 1505 1505 1506 1507 1507 1508 1508 1509 1509 1509 1509 1509 1509 1509 1510 1511 1512 1513 1513 1514 1515 1516 1517 1519
1496 1496 1495 1494 1493 1493 1492 1490 1489 1489 1490 1491 1492 1495 1497 1498 1499 1499 1500 1501 1502 1503 1504 1504 1505 1505 1506 1506 1506 1506 1506 1505 1505 1506 1507 1508 1509 1509 1510 1511 1512 1513 1514
1496 1496 1495 1494 1494 1493 1492 1491 1490 1489 1490 1491 1491 1493 1493 1494 1495 1495 1497 1498 1499 1500 1501 1501 1502 1503 1503 1504 1504 1503 1503 1503 1502 1503 1503 1504 1505 1506 1506 1507 1507 1508 1509
1496 1496 1496 1494 1493 1492 1491 1490 1489 1489 1490 1490 1491 1491 1491 1492 1491 1493 1494 1495 1496 1496 1497 1498 1499 1500 1500 1501 1501 1502 1501 1500 1500 1500 1500 1502 1502 1502 1503 1503 1503 1504 1504
1498 1497 1496 1495 1493 1492 1491 1490 1489 1489 1489 1488 1488 1488 1489 1488 1488 1489 1490 1490 1492 1493 1493 1494 1496 1496 1497 1497 1498 1498 1499 1498 1498 1498 1498 1499 1499 1499 1499 1499 1499 1499 1500
1498 1497 1497 1495 1494 1492 1491 1490 1489 1488 1487 1487 1486 1486 1485 1485 1485 1485 1485 1486 1487 1488 1489 1490 1491 1492 1493 1493 1494 1495 1495 1495 1495 1495 1494 1495 1496 1496 1496 1496 1495 1495 1496
1498 1497 1496 1495 1493 1492 1491 1489 1487 1486 1485 1484 1484 1483 1482 1481 1481 1481 1481 1481 1482 1482 1484 1485 1486 1487 1488 1489 1490 1491 1491 1491 1491 1492 1491 1491 1491 1492 1492 1492 1491 1491 1491